Regional Weather Roundup
Issued by NWS

Home | Current Version | Previous Version | Graphics & Text | Print | Product List | Glossary On
Versions: 1 2 3 4 5 6 7 8 9 10 11 12 13 14 15 16 17 18 19 20 21 22 23 24 25 26 27 28 29 30 31 32 33 34 35 36 37 38 39 40 41 42 43 44 45 46 47 48 49 50
233
ASUS43 KIND 161059
RWRIN

WEATHER ROUNDUP FOR INDIANA
NATIONAL WEATHER SERVICE INDIANAPOLIS IN
600 AM EST MON JAN 16 2017

NOTE: "FAIR" INDICATES FEW OR NO CLOUDS BELOW 12,000 FEET WITH NO
SIGNIFICANT WEATHER AND/OR OBSTRUCTIONS TO VISIBILITY.

* - STATION DOES NOT REPORT WEATHER SUCH AS PRECIPITATION OR FOG.

+ - STATION NOT QUALITY CONTROLLED BY THE NATIONAL WEATHER SERVICE.
    USE DATA WITH CAUTION...ESPECIALLY DEWPOINT AND RELATIVE
    HUMIDITY OBSERVATIONS.

INZ001>003-010>013-019-020-161200-
NORTHWEST INDIANA

CITY           SKY/WX    TMP DP  RH WIND       PRES   REMARKS
GARY /AIRPORT/ CLOUDY    34  28  80 CALM      30.28F
MONTICELLO +   CLOUDY    33  30  89 CALM      30.26S
RENSSELAER +     N/A     32  32 100 E5        30.26S FOG     WCI  27

$$

LMZ046-743>745-161200-
SOUTHERN LAKE MICHIGAN

STATION/POSITION TIME  TEMP    WIND        PRES    WAVE
                       AIR SEA DIR/SP/G            HT
                 (UTC) (F)     (DEG/KT/KT) (MB)    (FT)
BURNS HARBOR     1040   33     150/  3/  4 1025.7F
MICHIGAN CITY    1030   33     130/  2/  3   N/A

$$

INZ004-005-014>016-021>024-161200-
NORTH CENTRAL INDIANA

CITY           SKY/WX    TMP DP  RH WIND       PRES   REMARKS
GOSHEN         CLOUDY    32  25  75 S3        30.29S HAZE
SOUTH BEND     CLOUDY    31  26  82 CALM      30.29R

$$

INZ006>009-017-018-025>027-161200-
NORTHEAST INDIANA

CITY           SKY/WX    TMP DP  RH WIND       PRES   REMARKS
ANGOLA *+      CLOUDY    28  27  93 SE5       30.28F WCI  23
FORT WAYNE     CLOUDY    32  28  85 E6        30.29S FOG     WCI  26
KENDALLVILLE + CLOUDY    30  27  88 SE5       30.28F WCI  25

$$

INZ028-029-035-036-043>045-051>053-161200-
WEST CENTRAL INDIANA

CITY           SKY/WX    TMP DP  RH WIND       PRES   REMARKS
CRAWFORDSVL +  LGT SNOW  33  33 100 E8        30.24F WCI  26
LAFAYETTE      CLOUDY    34  32  92 E6        30.25F FOG     WCI  29
TERRE HAUTE    CLOUDY    38  36  92 SE5       30.24S FOG

$$

INZ030>032-037>040-046>048-054>057-064-065-161200-
CENTRAL INDIANA

CITY           SKY/WX    TMP DP  RH WIND       PRES   REMARKS
INDIANAPOLIS   DRIZZLE   36  34  92 E8        30.24F FOG
-EAGLE CREEK   CLOUDY    36  34  92 E6        30.24F FOG
KOKOMO +       CLOUDY    33  31  92 SE7       30.27F FOG     WCI  27
MT COMFORT *+  CLOUDY    36  34  93 SE6       30.26S
SHELBYVILLE    CLOUDY    38  35  89 E7        30.26S FOG

$$

INZ033-034-041-042-049-050-058-059-161200-
EAST CENTRAL INDIANA

CITY           SKY/WX    TMP DP  RH WIND       PRES   REMARKS
MUNCIE         CLOUDY    35  32  88 E7        30.27F FOG     WCI  29

$$

INZ060-061-067>069-081>083-085>088-161200-
SOUTHWEST INDIANA

CITY           SKY/WX    TMP DP  RH WIND       PRES   REMARKS
EVANSVILLE     CLOUDY    42  40  92 NE5       30.24R
HUNTINGBURG *+ CLOUDY    41  40  96 E3        30.24S

$$

INZ062-063-066-070>080-084-089>092-161200-
SOUTH CENTRAL AND SOUTHEAST INDIANA

CITY           SKY/WX    TMP DP  RH WIND       PRES   REMARKS
BLOOMINGTON    CLOUDY    38  36  92 SE7       30.23S FOG
MADISON *+     CLOUDY    39  37  93 E5        30.27F
SEYMOUR +      CLOUDY    39  39 100 E5        30.26S FOG

$$





USA.gov is the U.S. government's official web portal to all federal, state and local government web resources and services.